Location: Alfortville
(48.8058°N, 2.4204°E)
Time: 03:53:21
(UTC+00:00)

Cosmos 1980 Rocket - Pass Details

Date: 24 May 2022
Orbit: 827 x 851 km, 71.0° (Epoch: 05 July)

Event Time Altitude Azimuth Distance (km) Brightness Sun altitude
Rises 22:38:07 0° 241° (WSW) 3,378 5.2 -18.6°
Reaches altitude 10° 22:40:50 10° 252° (WSW) 2,451 4.6 -18.7°
Maximum altitude 22:45:45 30° 313° (NW) 1,462 4.0 -19.0°
Drops below altitude 10° 22:50:44 10° 14° (NNE) 2,477 5.5 -19.2°
Sets 22:53:31 0° 25° (NNE) 3,420 6.2 -19.3°
